sat.trackr.live / text

‹ back to catalog

STARLINK-30219

NORAD 57507 · 2023-113N

PAYLOAD ACTIVE UNKNOWN

§ Identity

Operator
Country
US
Launch date
2023-08-07
Launch site
AFETR
Launch vehicle
Mass (kg)
RCS (m²)

Purposes: comms

External: N2YO · Heavens-Above · Gunter

§ Orbital elements

Epoch: 2026-09-20T16:30:35.445600Z

Period
94.27 min
Inclination
43.0050°
Eccentricity
0.0001755
Mean motion
15.27576752 rev/d
Perigee alt
481.9 km
Apogee alt
484.3 km
Semi-major
6,861.2 km
B*
-2.8980e-6
RAAN
351.6998°
Arg perigee
274.2423°
Mean anomaly
85.8228°
Rev number
17,353

§ Raw data

STARLINK-302191 57507U 23113N   26263.68791025 -.00000342  00000+0 -28980-5 0  99932 57507  43.0050 351.6998 0001755 274.2423  85.8228 15.27576752173530

JSON: /api/v1/satellites/57507 · /tle

For live sub-satellite position, see the globe view (requires WebGL).

§ Visibility from observer

Set your observer location to see the next 7 days of passes ≥ 10°. The values pass through the URL so the page stays shareable.

No JS? Fill the form by hand. The geolocation button needs JavaScript.